Volver al catálogo

STARLINK-37561

ActivoComunicacionesVLEO
NORAD 69821·PAYLOAD·🇺🇸 United States

Lanzado Jul 5, 2026 desde Cape Canaveral Space Force Station

Loading…

Próximos Pases (próximas 24 horas)

TLE

ActualizadoSource: CelesTrak SupGP

Época: Sep 15, 2026, 04:10 UTC

1 69821C 26154C   26258.17409722  .00074268  00000+0  21940-2 0  2581
2 69821  53.1586 356.2667 0001063  94.4135 326.0600 15.34357777    14

Sigue STARLINK-37561 en tiempo real con AllMySat

Download on the App Store